Weather History for Hamilton, OH

Change the Weather History Date:

Sunday, May 18, 2014

  Actual Average (KCVG) Record (KCVG)
Temperature  
Mean Temperature 50 °F 64 °F  
Max Temperature 66 °F 74 °F 93 °F (1962)
Min Temperature 35 °F 54 °F 35 °F (1973)
Degree Days  
Heating Degree Days 16 4  
Month to date heating degree days 92  
Since 1 July heating degree days 4926  
Cooling Degree Days 0 3  
Month to date cooling degree days 30  
Year to date cooling degree days 48  
Moisture  
Dew Point 37 °F    
Average Humidity 74    
Maximum Humidity 100    
Minimum Humidity 30    
Precipitation  
Precipitation 0.00 in 0.15 in 1.58 in (1929)
Month to date precipitation 2.86  
Year to date precipitation 16.52  
Snow  
Snow 0.00 in 0.00 in 0.00 in ()
Month to date snowfall 0.0  
Since 1 July snowfall 22.1  
Snow Depth -    
Sea Level Pressure  
Sea Level Pressure 30.29 in    
Wind  
Wind Speed 1 mph (ENE)    
Max Wind Speed 7 mph    
Max Gust Speed -    
Visibility 7 miles    
Events Fog    
T = Trace of Precipitation, MM = Missing Value Source: NWS Daily Summary

Daily Weather History Graph

Daily Weather History Graph

Search for Another Location

Airport:

Trip Planner

Search our weather history database for the weather conditions in past years. The results will help you decide how hot, cold, wet, or windy it might be!

Date:

Astronomy

May. 18, 2014 Rise Set
Actual Time 6:21 AM EDT 8:47 PM EDT
Civil Twilight 5:51 AM EDT 9:18 PM EDT
Nautical Twilight 5:13 AM EDT 9:56 PM EDT
Astronomical Twilight 4:31 AM EDT 10:38 PM EDT
Moon No Moon Rise 10:09 AM EDT (5/18)
Length of Visible Light 15h 27m
Length of Day
14h 25m
Waning Gibbous, 81% of the Moon is Illuminated
May 18
Waning Gibbous
May 21
Last Quarter
May 28
New
Jun 5
First Quarter
Jun 13
Full

Hourly Weather History & Observations

Time (EDT) Temp. Dew Point Humidity Pressure Visibility Wind Dir Wind Speed Gust Speed Precip Events Conditions
12:53 AM 41.0 °F 39.0 °F 93% 30.28 in 10.0 mi Calm Calm - N/A   Clear
1:53 AM 39.9 °F 37.9 °F 93% 30.29 in 5.0 mi Calm Calm - N/A   Clear
2:53 AM 39.9 °F 37.9 °F 93% 30.28 in 6.0 mi Calm Calm - N/A   Clear
3:53 AM 37.9 °F 36.0 °F 93% 30.28 in 7.0 mi Calm Calm - N/A   Clear
4:07 AM 37.9 °F 36.0 °F 93% 30.28 in 5.0 mi Calm Calm - N/A   Scattered Clouds
4:15 AM 37.9 °F 36.0 °F 93% 30.28 in 9.0 mi Calm Calm - N/A   Mostly Cloudy
4:21 AM 37.9 °F 36.0 °F 93% 30.28 in 1.8 mi Calm Calm - N/A   Mostly Cloudy
4:28 AM 37.9 °F 37.0 °F 97% 30.28 in 0.8 mi Calm Calm - N/A   Mist
4:53 AM 37.9 °F 36.0 °F 93% 30.29 in 0.5 mi Calm Calm - N/A Fog Fog
5:53 AM 37.9 °F 36.0 °F 93% 30.30 in 0.2 mi Calm Calm - N/A Fog Fog
6:34 AM 37.0 °F 36.0 °F 96% 30.30 in 1.8 mi Calm Calm - N/A   Overcast
6:41 AM 36.0 °F 35.1 °F 97% 30.30 in 2.0 mi Calm Calm - N/A   Overcast
6:50 AM 35.6 °F 35.6 °F 100% 30.30 in 8.0 mi Calm Calm - N/A   Overcast
6:53 AM 36.0 °F 35.1 °F 97% 30.31 in 7.0 mi Calm Calm - N/A   Mostly Cloudy
7:05 AM 37.9 °F 37.0 °F 97% 30.30 in 2.5 mi Calm Calm - N/A   Scattered Clouds
7:23 AM 39.0 °F 39.0 °F 100% 30.31 in 6.0 mi Calm Calm - N/A   Clear
7:53 AM 42.1 °F 41.0 °F 96% 30.32 in 8.0 mi Calm Calm - N/A   Clear
8:53 AM 48.0 °F 44.1 °F 86% 30.33 in 10.0 mi Calm Calm - N/A   Clear
9:53 AM 54.0 °F 43.0 °F 66% 30.33 in 10.0 mi Calm Calm - N/A   Clear
10:53 AM 57.9 °F 37.0 °F 46% 30.33 in 10.0 mi Variable 4.6 mph - N/A   Clear
11:53 AM 60.1 °F 36.0 °F 41% 30.33 in 10.0 mi East 6.9 mph - N/A   Clear
12:53 PM 60.1 °F 37.0 °F 42% 30.33 in 10.0 mi ENE 6.9 mph - N/A   Clear
1:53 PM 62.1 °F 34.0 °F 35% 30.31 in 10.0 mi Calm Calm - N/A   Clear
2:53 PM 63.0 °F 33.1 °F 33% 30.30 in 10.0 mi SSW 3.5 mph - N/A   Clear
3:53 PM 64.0 °F 35.1 °F 34% 30.28 in 10.0 mi Variable 4.6 mph - N/A   Clear
4:53 PM 64.0 °F 32.0 °F 30% 30.27 in 10.0 mi Calm Calm - N/A   Clear
5:53 PM 64.9 °F 33.1 °F 31% 30.27 in 10.0 mi North 3.5 mph - N/A   Clear
6:53 PM 64.9 °F 34.0 °F 32% 30.26 in 10.0 mi NE 4.6 mph - N/A   Clear
7:53 PM 63.0 °F 39.0 °F 41% 30.26 in 10.0 mi ENE 3.5 mph - N/A   Clear
8:53 PM 53.1 °F 43.0 °F 69% 30.26 in 10.0 mi Calm Calm - N/A   Clear
9:53 PM 50.0 °F 42.1 °F 74% 30.27 in 10.0 mi Calm Calm - N/A   Clear
10:53 PM 48.0 °F 43.0 °F 83% 30.27 in 10.0 mi Calm Calm - N/A   Clear
11:53 PM 45.0 °F 42.1 °F 90% 30.27 in 10.0 mi Calm Calm - N/A   Clear